Wind_Speed
13 9 6 3 3 1 11 6 2 6 1 1 1 0 1 2 3 1 1 3 4 1 2 4 2 3 2 6 8 3 3 4 3 4 1 2 3 7 12 6 5 2 3 4
12 8 5 2 1 4 12 7 4 5 3 1 1 1 1 2 2 2 1 2 2 1 1 3 3 3 3 4 4 5 5 3 5 3 0 1 5 7 7 4 2 7 6 3
11 8 5 2 2 6 13 6 3 3 3 2 2 2 2 3 2 3 3 2 1 1 1 2 4 4 4 3 2 4 1 2 2 6 2 4 8 13 12 10 5 12 13 16
10 9 5 3 3 7 12 6 3 5 4 5 3 2 1 2 2 4 6 3 3 1 1 2 4 4 3 3 3 2 1 3 1 4 4 2 2 10 15 15 19 13 18 18
12 8 6 4 4 9 11 7 6 5 3 3 4 1 2 2 2 4 3 4 5 1 3 4 2 4 3 3 1 2 2 3 1 2 2 2 4 9 10 15 19 19 23 23
13 10 6 4 5 10 7 8 10 7 2 3 4 3 2 2 2 4 7 2 2 7 4 2 5 4 3 2 5 3 2 4 2 2 2 3 6 9 11 7 8 10 17 20
14 10 6 6 5 8 9 13 15 5 3 3 3 4 3 3 3 1 4 6 1 1 5 3 3 8 6 4 5 1 5 4 1 2 4 4 3 2 2 7 7 9 13 15
15 11 8 7 7 8 8 14 8 5 5 7 6 6 4 7 3 2 3 5 6 7 1 3 3 2 4 4 4 2 2 2 2 2 2 5 3 2 1 1 5 3 5 10
15 11 9 10 10 9 9 12 10 7 12 2 4 4 1 3 3 3 1 2 4 3 1 2 4 3 2 3 3 3 2 3 1 2 1 2 2 1 1 2 5 13 13 14
16 13 11 12 11 10 9 12 13 9 10 3 4 2 3 3 3 3 1 5 4 7 1 2 1 2 1 4 3 3 2 2 4 4 3 3 3 4 3 4 3 15 14 16
17 15 13 14 13 10 8 15 14 10 9 8 8 6 4 4 2 2 1 2 2 3 2 1 1 1 2 1 1 1 3 2 2 2 4 3 11 2 4 4 9 13 17 16
20 18 16 16 13 12 13 21 17 26 12 14 15 12 10 8 4 5 4 2 2 2 1 1 1 2 3 3 3 2 2 2 2 3 2 5 9 2 5 9 15 16 20 22
22 20 19 18 16 16 21 27 28 37 26 18 6 9 10 8 7 5 3 2 3 1 3 1 2 3 2 3 3 3 3 4 2 4 4 8 9 7 7 17 18 20 19 20
25 22 22 20 18 23 27 39 13 12 11 7 4 7 9 9 7 5 5 8 6 4 3 2 2 2 3 2 2 3 3 4 4 5 6 17 3 12 24 27 23 19 18 21
27 25 23 22 20 29 31 13 13 11 4 6 8 11 9 7 6 6 4 6 4 2 2 3 2 2 1 2 1 1 1 1 2 3 4 13 23 23 26 24 23 25 26 29
28 27 25 25 25 27 22 6 6 14 25 8 4 6 7 8 9 9 9 7 4 3 3 3 2 0 2 1 2 4 4 3 7 8 12 20 25 25 20 20 32 32 30 28
29 27 27 27 29 21 5 8 17 15 8 5 6 4 4 6 6 7 6 5 5 3 2 1 2 2 1 2 3 8 6 9 13 14 12 16 12 15 22 20 24 25 28 28
30 27 27 25 15 8 11 19 17 13 6 4 4 3 3 3 3 2 3 2 2 3 1 1 1 0 1 3 7 6 9 10 10 8 14 20 23 21 21 21 21 22 20 20
33 31 27 24 16 7 13 16 12 9 4 6 4 3 3 3 3 2 2 1 2 1 1 1 1 2 4 5 7 9 10 9 13 15 16 15 15 20 20 20 20 19 20 20
38 37 10 8 10 26 17 4 2 3 5 5 5 4 3 4 2 2 3 0 1 1 2 2 2 3 10 9 9 12 13 13 14 16 13 14 20 20 21 21 19 17 17 16
29 7 6 22 23 7 2 2 3 2 4 4 4 3 4 3 2 2 2 2 1 1 2 2 2 3 4 6 7 12 16 19 19 18 19 20 21 23 22 20 17 17 15 13
12 13 27 18 5 3 4 1 1 2 3 3 4 4 4 4 3 1 2 2 2 1 5 2 3 2 5 2 11 15 18 18 21 20 22 22 20 21 22 22 19 16 13 11
30 8 6 5 2 4 5 4 1 2 6 7 6 4 4 3 3 3 2 2 2 7 3 3 3 3 1 9 16 20 18 19 21 22 22 22 22 20 20 22 20 17 15 11
4 6 4 2 3 2 2 3 5 6 11 14 11 7 3 3 2 2 3 2 3 3 4 4 2 1 9 16 20 22 25 25 25 25 24 24 22 20 20 21 21 19 18 12
3 4 4 2 5 5 11 17 14 12 15 12 10 7 3 2 2 2 1 3 4 4 3 0 3 12 18 20 22 25 26 25 26 25 25 24 19 20 22 20 20 19 15 13
3 5 7 7 8 3 6 14 16 15 13 10 6 4 3 2 2 3 5 3 5 1 2 7 17 20 21 23 25 27 26 23 23 23 23 22 18 20 21 21 18 17 18 13
3 5 13 9 14 13 11 14 14 15 7 2 3 3 2 4 1 3 3 4 2 4 11 13 18 22 25 25 26 27 20 19 20 21 22 23 20 19 20 21 19 17 18 19
Wind_Direction
270 274 277 308 354 282 178 168 163 175 203 276 245 229 186 286 314 46 115 86 42 103 77 81 76 97 76 136 148 165 238 120 118 93 98 269 223 223 215 228 192 229 306 258
258 260 259 279 312 199 174 150 129 178 185 236 178 260 218 256 333 25 110 125 251 340 174 106 115 91 33 163 199 189 179 140 116 108 20 218 214 197 208 202 30 212 250 226
245 245 238 259 254 192 181 156 137 162 202 264 253 181 82 136 26 46 48 15 283 201 90 34 132 110 66 168 98 96 108 104 231 202 107 157 205 204 203 204 226 244 238 259
230 227 223 248 234 190 182 173 150 158 169 211 193 158 86 116 90 27 32 86 7 14 96 101 111 105 101 70 1 66 34 111 101 91 99 142 222 216 215 216 234 246 261 265
213 211 216 243 228 187 188 165 154 136 121 167 187 56 101 99 55 10 50 85 35 98 82 11 87 144 164 188 150 87 48 110 124 76 42 254 258 240 239 238 247 249 256 268
208 206 205 223 217 193 189 185 162 143 146 168 180 130 125 117 310 94 66 331 128 64 47 357 339 315 354 122 152 135 143 141 151 173 304 266 251 245 229 237 254 258 253 263
201 197 192 203 192 195 206 183 157 154 123 169 123 132 116 125 77 44 18 34 47 61 322 120 78 73 81 84 62 122 154 135 133 158 224 228 84 205 212 229 265 250 263 280
194 192 183 179 161 159 174 171 159 133 114 126 118 112 116 121 105 42 9 31 4 345 183 181 149 128 161 86 35 23 278 143 104 216 228 317 101 100 96 16 72 70 337 334
188 181 182 164 155 141 149 162 157 125 129 125 123 114 108 125 123 147 339 358 7 30 285 222 184 173 126 160 137 47 91 100 211 176 238 256 88 101 143 221 168 20 348 332
179 179 177 153 152 146 141 145 145 127 107 135 138 131 136 118 125 109 4 346 17 9 352 211 223 143 144 167 185 162 172 193 222 203 246 272 4 349 170 234 52 349 351 342
175 179 169 153 148 144 135 140 142 146 109 101 111 112 125 128 128 130 46 162 49 22 212 222 126 171 88 167 79 126 211 212 211 212 231 234 10 145 317 20 347 335 334 333
173 173 160 152 144 132 133 124 131 131 101 120 105 96 92 91 116 121 60 80 73 119 206 97 145 165 183 171 156 156 202 337 345 251 33 57 355 342 99 358 329 323 320 319
170 164 156 150 143 137 137 128 129 115 107 95 85 76 79 87 85 112 119 154 162 154 139 169 157 179 310 192 155 172 122 29 256 313 105 340 315 172 324 327 318 312 309 308
164 159 154 148 140 141 143 137 134 120 111 108 91 98 82 70 68 94 121 132 122 118 79 358 42 50 6 23 29 333 7 333 332 269 294 331 187 304 322 320 321 316 310 306
162 159 153 146 138 149 155 150 150 142 126 123 134 100 71 69 64 91 96 167 160 68 74 37 57 54 243 97 237 171 120 97 278 259 266 289 285 301 308 309 314 316 311 310
162 160 150 145 141 145 146 124 184 141 128 108 122 113 66 79 80 90 85 106 108 93 87 97 97 101 313 202 209 182 174 246 271 270 292 286 285 294 296 297 309 307 303 299
162 156 152 151 149 152 157 167 159 160 138 114 114 107 82 98 90 70 71 63 69 72 90 96 153 181 266 236 222 165 259 285 288 283 287 293 294 289 302 306 306 306 304 299
157 153 152 155 159 146 126 136 147 152 132 108 112 88 118 76 87 95 67 88 84 42 106 135 196 171 246 246 230 252 285 288 281 251 285 284 294 302 301 305 312 319 317 319
151 149 139 124 123 115 137 134 127 107 100 110 88 123 132 114 104 101 79 114 121 169 168 135 170 159 235 230 249 275 292 287 293 294 296 305 297 307 306 311 324 322 317 312
144 131 121 114 135 134 127 112 92 74 53 58 84 120 111 128 135 118 155 308 107 153 89 132 226 254 249 236 273 291 296 300 303 299 301 308 306 311 315 316 318 316 318 320
142 128 100 138 146 143 108 99 64 41 65 51 107 133 125 137 140 136 180 128 114 152 128 229 228 260 225 220 300 327 321 317 311 305 298 298 301 308 307 312 314 315 314 318
149 133 126 134 141 123 93 25 319 50 128 128 121 129 122 127 120 162 138 108 178 187 144 205 244 247 143 314 325 325 322 319 317 313 309 310 304 309 307 307 308 309 310 310
126 116 121 144 120 66 132 160 100 149 174 158 148 123 124 123 113 113 169 158 184 129 221 233 228 150 42 340 331 329 330 327 325 321 313 308 304 307 307 307 307 303 305 308
139 139 103 152 165 173 154 143 129 135 147 139 131 113 124 120 117 131 155 200 175 231 235 240 147 121 349 343 338 330 326 326 327 326 320 314 306 301 303 302 305 304 290 295
137 128 109 126 127 95 118 114 119 128 146 136 116 96 107 107 117 194 176 199 238 229 241 292 359 328 323 323 325 325 321 321 325 328 325 317 311 301 301 302 300 292 295 286
108 89 102 122 99 109 125 124 125 137 140 117 93 101 88 126 156 183 213 207 227 268 222 312 323 325 325 323 323 319 316 316 324 328 330 321 310 301 301 300 295 293 275 270
87 63 128 134 127 136 142 142 142 144 142 101 123 103 149 102 144 233 202 225 223 290 311 313 311 312 317 326 325 321 309 312 324 329 335 332 319 299 296 295 295 290 290 273
Height
1476 1477 1478 1476 1474 1475 1477 1479 1481 1482 1483 1485 1481 1480 1479 1478 1475 1476 1476 1476 1475 1477 1475 1477 1478 1479 1483 1485 1488 1489 1487 1486 1496 1501 1501 1499 1495 1492 1492 1496 1505 1505 1503 1491
1471 1472 1473 1473 1471 1472 1474 1477 1480 1482 1482 1479 1478 1479 1478 1479 1478 1476 1475 1474 1475 1475 1475 1477 1482 1482 1486 1486 1486 1485 1485 1488 1496 1504 1503 1501 1498 1496 1494 1499 1503 1502 1500 1486
1466 1468 1469 1469 1468 1469 1472 1475 1478 1481 1482 1481 1479 1477 1478 1477 1478 1479 1478 1479 1475 1475 1476 1477 1478 1482 1486 1486 1486 1485 1484 1486 1485 1479 1484 1485 1493 1492 1495 1496 1501 1494 1491 1487
1461 1464 1465 1465 1466 1466 1469 1470 1472 1474 1478 1478 1477 1477 1478 1478 1478 1478 1478 1479 1481 1476 1475 1478 1480 1482 1485 1485 1485 1485 1484 1491 1495 1490 1491 1492 1491 1490 1490 1495 1490 1495 1486 1484
1457 1459 1461 1462 1462 1463 1466 1467 1469 1474 1477 1476 1476 1476 1477 1479 1482 1479 1478 1477 1481 1478 1478 1483 1481 1483 1482 1483 1485 1485 1487 1493 1495 1498 1495 1495 1494 1490 1489 1489 1487 1486 1486 1483
1452 1455 1457 1458 1458 1459 1460 1462 1464 1467 1477 1476 1473 1477 1480 1482 1482 1483 1483 1484 1479 1482 1485 1485 1485 1486 1486 1484 1484 1486 1487 1492 1493 1491 1498 1495 1493 1487 1486 1486 1486 1485 1485 1478
1449 1452 1454 1455 1455 1455 1457 1458 1462 1467 1474 1474 1476 1479 1480 1482 1483 1483 1483 1482 1481 1486 1484 1486 1485 1485 1487 1489 1490 1489 1489 1490 1493 1493 1496 1489 1485 1486 1486 1486 1484 1485 1483 1481
1445 1448 1451 1452 1452 1453 1454 1456 1460 1464 1473 1476 1480 1480 1482 1483 1483 1486 1485 1487 1486 1486 1485 1481 1482 1483 1486 1490 1492 1490 1489 1488 1494 1489 1487 1481 1482 1485 1484 1483 1482 1483 1483 1480
1442 1445 1448 1450 1451 1452 1453 1455 1458 1462 1468 1478 1479 1481 1483 1481 1482 1485 1485 1485 1482 1482 1484 1481 1478 1478 1482 1486 1489 1492 1491 1488 1487 1492 1490 1482 1480 1484 1486 1486 1479 1487 1486 1483
1439 1443 1446 1448 1450 1451 1452 1454 1457 1460 1468 1478 1479 1481 1481 1483 1483 1483 1487 1486 1486 1486 1483 1483 1481 1481 1485 1481 1483 1487 1489 1490 1489 1488 1488 1483 1484 1486 1486 1483 1487 1489 1488 1485
1436 1441 1444 1447 1448 1450 1451 1454 1457 1460 1467 1477 1479 1480 1482 1483 1483 1481 1488 1489 1488 1489 1484 1481 1484 1481 1488 1487 1490 1489 1487 1486 1488 1491 1489 1490 1490 1488 1485 1492 1491 1489 1487 1484
1434 1438 1442 1445 1448 1450 1452 1453 1457 1462 1465 1479 1481 1482 1482 1483 1484 1485 1488 1490 1491 1491 1492 1490 1489 1486 1488 1487 1482 1495 1492 1494 1490 1490 1486 1494 1493 1492 1492 1492 1490 1486 1483 1479
1432 1437 1441 1444 1448 1450 1453 1455 1460 1464 1470 1481 1484 1484 1484 1485 1486 1487 1489 1490 1491 1492 1493 1492 1489 1488 1493 1481 1482 1486 1493 1496 1493 1490 1492 1491 1490 1490 1489 1489 1486 1482 1479 1475
1430 1435 1440 1443 1447 1451 1455 1458 1461 1463 1468 1479 1490 1487 1486 1487 1487 1487 1488 1488 1490 1491 1493 1494 1494 1493 1499 1492 1497 1495 1497 1495 1497 1490 1488 1486 1484 1485 1484 1479 1478 1476 1473 1470
1429 1435 1439 1443 1448 1452 1457 1461 1463 1464 1468 1475 1487 1489 1489 1488 1488 1488 1489 1490 1492 1494 1494 1496 1497 1500 1499 1500 1501 1497 1498 1499 1496 1488 1490 1491 1484 1482 1479 1476 1473 1470 1466 1459
1429 1434 1439 1443 1448 1453 1459 1464 1465 1466 1466 1471 1483 1490 1491 1490 1490 1490 1490 1493 1494 1495 1496 1498 1500 1501 1503 1498 1494 1497 1497 1497 1497 1493 1490 1486 1481 1477 1475 1471 1467 1463 1459 1455
1429 1434 1439 1445 1449 1452 1455 1459 1463 1465 1467 1470 1484 1489 1492 1491 1492 1493 1493 1495 1496 1497 1498 1499 1499 1500 1500 1497 1489 1490 1492 1492 1491 1488 1485 1479 1476 1472 1470 1467 1462 1457 1451 1447
1428 1435 1440 1446 1451 1454 1456 1459 1462 1466 1466 1469 1478 1489 1491 1493 1494 1495 1495 1498 1498 1499 1499 1500 1499 1500 1500 1494 1488 1488 1487 1485 1482 1482 1481 1477 1472 1468 1464 1461 1456 1450 1444 1440
1429 1436 1443 1448 1454 1457 1460 1463 1465 1465 1469 1468 1474 1482 1489 1493 1494 1495 1497 1498 1497 1499 1497 1498 1501 1497 1493 1485 1486 1486 1487 1483 1479 1477 1474 1471 1467 1463 1459 1454 1449 1445 1440 1436
1430 1438 1443 1450 1455 1459 1461 1466 1465 1466 1468 1471 1479 1484 1486 1491 1493 1496 1497 1498 1497 1496 1498 1498 1498 1489 1482 1482 1484 1484 1483 1481 1479 1474 1468 1466 1462 1458 1454 1449 1445 1440 1436 1433
1430 1435 1441 1449 1456 1460 1462 1464 1466 1469 1473 1477 1481 1483 1485 1491 1492 1493 1494 1495 1498 1493 1497 1496 1492 1485 1480 1482 1484 1483 1481 1480 1476 1472 1468 1464 1460 1455 1450 1445 1441 1437 1433 1428
1429 1433 1442 1452 1456 1458 1462 1472 1471 1469 1474 1479 1480 1484 1486 1489 1491 1492 1494 1494 1496 1492 1498 1497 1487 1478 1479 1480 1480 1478 1477 1473 1470 1468 1463 1459 1455 1451 1447 1443 1438 1435 1430 1425
1430 1437 1443 1448 1455 1459 1458 1470 1472 1473 1473 1475 1478 1483 1486 1489 1490 1493 1493 1491 1492 1496 1492 1483 1475 1476 1477 1478 1476 1474 1472 1469 1465 1461 1458 1453 1450 1446 1442 1438 1435 1431 1427 1422
1429 1432 1445 1445 1452 1452 1453 1456 1460 1466 1469 1471 1474 1480 1485 1487 1489 1491 1491 1490 1490 1486 1485 1477 1475 1476 1476 1474 1472 1469 1465 1462 1458 1455 1452 1448 1444 1441 1438 1434 1430 1428 1423 1421
1428 1429 1441 1446 1449 1451 1453 1454 1459 1464 1469 1469 1472 1478 1482 1486 1487 1488 1490 1489 1485 1475 1473 1474 1476 1475 1472 1469 1467 1465 1461 1456 1452 1448 1444 1441 1439 1436 1432 1429 1425 1423 1420 1417
1426 1431 1441 1446 1449 1456 1457 1458 1461 1465 1468 1470 1471 1478 1482 1485 1486 1487 1486 1488 1480 1474 1475 1474 1473 1471 1468 1466 1463 1459 1456 1454 1449 1445 1440 1436 1433 1430 1427 1424 1420 1417 1416 1414
1427 1432 1434 1441 1445 1449 1455 1458 1461 1464 1468 1471 1473 1477 1479 1486 1487 1485 1482 1479 1473 1473 1473 1472 1470 1467 1464 1461 1458 1455 1451 1448 1445 1441 1437 1432 1428 1424 1421 1417 1415 1413 1411 1409